Weather History for KBED - May, 2014

Change the Weather History Date:

Wednesday, May 21, 2014

  Actual Average Record
Temperature  
Mean Temperature 57 °F -  
Max Temperature 72 °F 71 °F 91 °F (1975)
Min Temperature 43 °F 48 °F 30 °F (2002)
Degree Days  
Heating Degree Days 8    
Growing Degree Days 7 (Base 50)    
Moisture  
Dew Point 49 °F    
Average Humidity 75    
Maximum Humidity 100    
Minimum Humidity 47    
Precipitation  
Precipitation 0.00 in - - ()
Sea Level Pressure  
Sea Level Pressure 29.99 in    
Wind  
Wind Speed 3 mph (ESE)    
Max Wind Speed 15 mph    
Max Gust Speed 16 mph    
Visibility 9 miles    
Events      
Averages and records for this station are not official NWS values.
T = Trace of Precipitation, MM = Missing Value Source: NWS Daily Summary

Daily Weather History Graph

Daily Weather History Graph

Search for Another Location

Airport or City:

Trip Planner

Search our weather history database for the weather conditions in past years. The results will help you decide how hot, cold, wet, or windy it might be!

Date:

Astronomy

May. 21, 2014 Rise Set
Actual Time 5:17 AM EDT 8:06 PM EDT
Civil Twilight 4:44 AM EDT 8:39 PM EDT
Nautical Twilight 4:03 AM EDT 9:20 PM EDT
Astronomical Twilight 3:15 AM EDT 10:09 PM EDT
Moon 1:08 AM EDT (5/21) 12:35 PM EDT (5/21)
Length of Visible Light 15h 54m
Length of Day
14h 48m
Waning Gibbous, 49% of the Moon is Illuminated
May 21
Waning Gibbous
May 28
New
Jun 5
First Quarter
Jun 13
Full
Jun 19
Last Quarter

Hourly Weather History & Observations

Time (EDT) Temp. Windchill Dew Point Humidity Pressure Visibility Wind Dir Wind Speed Gust Speed Precip Events Conditions
12:56 AM 46.9 °F - 46.9 °F 100% 30.00 in 10.0 mi Calm Calm - N/A   Clear
1:56 AM 45.0 °F - 45.0 °F 100% 30.00 in 10.0 mi Calm Calm - N/A   Clear
2:56 AM 46.0 °F 44.8 °F 46.0 °F 100% 30.00 in 10.0 mi West 3.5 mph - N/A   Clear
3:56 AM 43.0 °F - 43.0 °F 100% 29.99 in 10.0 mi Calm Calm - N/A   Clear
4:33 AM 43.0 °F - 43.0 °F 100% 29.96 in 1.8 mi Calm Calm - N/A   Clear
4:42 AM 43.0 °F - 43.0 °F 100% 29.95 in 3.0 mi Calm Calm - N/A   Clear
4:56 AM 44.1 °F - 44.1 °F 100% 30.00 in 10.0 mi Calm Calm - N/A   Clear
5:56 AM 44.1 °F - 44.1 °F 100% 30.02 in 10.0 mi Calm Calm - N/A   Clear
6:56 AM 50.0 °F - 50.0 °F 100% 29.99 in 10.0 mi Calm Calm - N/A   Clear
7:56 AM 57.0 °F - 51.1 °F 81% 30.02 in 10.0 mi Calm Calm - N/A   Clear
8:56 AM 63.0 °F - 52.0 °F 67% 30.03 in 10.0 mi Variable 4.6 mph - N/A   Partly Cloudy
9:56 AM 64.9 °F - 50.0 °F 58% 30.02 in 10.0 mi Calm Calm - N/A   Clear
10:56 AM 68.0 °F - 48.9 °F 50% 30.01 in 10.0 mi Variable 3.5 mph - N/A   Clear
11:56 AM 70.0 °F - 48.9 °F 47% 29.99 in - North - - N/A   Partly Cloudy
12:56 PM 70.0 °F - 51.1 °F 51% 29.99 in 10.0 mi SE 9.2 mph - N/A   Mostly Cloudy
1:56 PM 71.6 °F - 51.8 °F 50% 29.93 in 10.0 mi East 9.2 mph 16.1 mph N/A   Unknown
2:56 PM 71.1 °F - 51.1 °F 49% 29.96 in 10.0 mi North - - N/A   Clear
3:56 PM 69.1 °F - 51.1 °F 53% 29.95 in 10.0 mi ESE 12.7 mph - N/A   Clear
4:56 PM 66.0 °F - 50.0 °F 56% 29.95 in 10.0 mi East 15.0 mph - N/A   Clear
5:56 PM 63.0 °F - 48.9 °F 60% 29.97 in 10.0 mi ESE 12.7 mph - N/A   Clear
6:56 PM 62.1 °F - 48.9 °F 62% 29.97 in 10.0 mi East 11.5 mph - N/A   Clear
7:56 PM 60.1 °F - 50.0 °F 69% 29.97 in 10.0 mi East 8.1 mph - N/A   Clear
8:56 PM 60.1 °F - 51.1 °F 72% 29.98 in 10.0 mi East 3.5 mph - N/A   Overcast
9:56 PM 59.0 °F - 51.1 °F 75% 29.98 in 10.0 mi South 5.8 mph - N/A   Overcast
10:56 PM 55.9 °F - 51.1 °F 84% 29.99 in 10.0 mi SSW 5.8 mph - N/A   Overcast
11:56 PM 57.0 °F - 50.0 °F 77% 29.99 in 10.0 mi Calm Calm - N/A   Overcast